Lexington Weather

Lexington, Massachusetts, USA

23°F
3/3/2021 3:05am 
  • Lexington Conditions: Overcast
  • Temperature: 23.4°F / -4.8°CWarmer 1.8°F than last hour.
  • Dew Point: 10.8°FIncreased 2.2°Fsince last hour.
  • Relative Humidity: 58%Increased 1.0% since last hour.
  • Wind: Wind from WSW WSW 3 mph, 10-min avg: 1 mph, gust: 5 mph
  • Barometer: 29.86 inFalling 0.04  inHg/hr Falling Slowly
  • Visibility: 10 miles
  • Snow Today: 0.0 in
  •   

Regional Weather Roundup
for Boston / Norton, MA

        
000
ASUS41 KBOX 270704
RWRBOX

REGIONAL WEATHER ROUNDUP
NATIONAL WEATHER SERVICE BOSTON/NORTON MA
200 AM EST SAT FEB 27 2021

NOTE:  "FAIR" INDICATES FEW OR NO CLOUDS BELOW 12,000 FEET WITH NO 
SIGNIFICANT WEATHER AND/OR OBSTRUCTIONS TO VISIBILITY.

MAZALL-270800-
EASTERN MASSACHUSETTS
  
CITY           SKY/WX    TMP DP  RH WIND       PRES   REMARKS
BOSTON         MOCLDY    31  26  82 S12       30.49F WCI  22          
BEVERLY        CLEAR     33  27  78 S8        30.48S WCI  26          
LAWRENCE       CLEAR     31  25  78 S5        30.48S WCI  26          
BEDFORD        CLEAR     29  23  78 SE5       30.46F WCI  24          
BLUE HILL        N/A     29  27  92 S17       30.43F WCI  17          
NORWOOD        CLEAR     29  25  85 SE3       30.49S                  
MARSHFIELD     CLEAR     34  27  75 S8G14     30.50S WCI  27          
PLYMOUTH       CLEAR     30  24  78 SE5       30.49F WCI  25          
TAUNTON        CLEAR     28  23  81 CALM      30.49F                  
NEW BEDFORD    CLEAR     35  26  69 S5        30.48F WCI  31          
$$

MAZALL-270800-
CAPE COD AND THE ISLANDS
  
CITY           SKY/WX    TMP DP  RH WIND       PRES   REMARKS
FALMOUTH       CLEAR     30  23  74 S9        30.51F WCI  22          
HYANNIS        CLEAR     35  26  69 S6        30.49F WCI  30          
CHATHAM        CLEAR     35  24  64 VRB6      30.52F WCI  30          
PROVINCETOWN   CLEAR     34  26  72 S13       30.52F WCI  25          
NANTUCKET      PTCLDY    35  25  66 S14       30.51F WCI  26          
MARTHAS VNYRD  CLEAR     34  26  72 S9        30.49F WCI  27          
$$
 
MAZALL-270800-
CENTRAL AND WESTERN MASSACHUSETTS
  
CITY           SKY/WX    TMP DP  RH WIND       PRES   REMARKS
WORCESTER      CLEAR     28  18  66 S6        30.40F WCI  22          
FITCHBURG      CLEAR     25  18  74 S3        30.45F                  
ORANGE         CLEAR     21  18  88 CALM      30.42F                  
SPRINGFIELD    CLEAR     28  20  71 S3        30.42F                  
WESTFIELD      CLEAR     27  21  78 CALM      30.42F                  
NORTH ADAMS    CLEAR     31  18  58 E8        30.36F WCI  23          
PITTSFIELD     CLEAR     29  15  56 E6        30.32F WCI  23          
$$
 
RIZALL-270800-
RHODE ISLAND
  
CITY           SKY/WX    TMP DP  RH WIND       PRES   REMARKS
PROVIDENCE     CLEAR     32  26  78 S5        30.48F WCI  27          
NEWPORT        CLEAR     34  26  72 S9        30.47F WCI  27          
BLOCK ISLAND   PTCLDY    36  26  67 SE14      30.47F WCI  27          
SMITHFIELD     CLEAR     30  26  85 VRB3      30.45F                  
WESTERLY       PTCLDY    36  26  67 S10       30.47F WCI  28          
$$
 
CTZALL-270800-
CONNECTICUT
  
CITY           SKY/WX    TMP DP  RH WIND       PRES   REMARKS
BRADLEY INTL   MOCLDY    31  24  75 S7        30.43F WCI  24          
HARTFORD       CLEAR     31  24  75 S3        30.45F                  
BRIDGEPORT     CLOUDY    37  30  75 SE7       30.44  WCI  32          
DANBURY        CLOUDY    33  25  72 SE6       30.42F WCI  28          
GROTON         PTCLDY    37  29  72 SE9       30.46F WCI  30          
NEW HAVEN      CLOUDY    38  31  76 SE6       30.44F                  
CHESTER        MOCLDY    34  27  75 SE3       30.44S                  
MERIDEN        PTCLDY    27  24  89 CALM      30.45F                  
WILLIMANTIC    CLEAR     26  22  84 CALM      30.46F                  
OXFORD         MOCLDY    31  29  92 SE6       30.41F WCI  25          
$$

MEZ002-015-021-024-NHZ003-005-008-011-012-014-VTZ005-008-270800-
NORTHERN NEW ENGLAND
  
CITY           SKY/WX    TMP DP  RH WIND       PRES   REMARKS
PORTLAND ME    MOCLDY    34  27  75 S8        30.47S WCI  27          
BANGOR ME      CLEAR     14   3  61 CALM      30.47S                  
CONCORD NH     CLEAR     20  16  84 CALM      30.44S                  
MANCHESTER NH  CLEAR     27  20  75 CALM      30.44R                  
NASHUA NH      CLEAR     21  20  96 CALM      30.46F                  
PORTSMOUTH NH  MOCLDY    31  25  78 S8        30.45S WCI  24          
JAFFREY NH     CLEAR     21  16  81 CALM      30.39F                  
KEENE NH       CLEAR     18  16  92 CALM      30.42F                  
BURLINGTON VT  CLEAR     28  15  58 S7        30.31F WCI  21          
MT. WASHINGTON FOG        7   7 100 SW28G43     N/A  VSB 1/16WCI -16  
$$

NYZ052-076-270800-
EASTERN NEW YORK
  
CITY           SKY/WX    TMP DP  RH WIND       PRES   REMARKS
ALBANY         MOCLDY    33  19  56 SE17      30.35F WCI  22          
NEW YORK CITY  LGT RAIN  41  29  62 S12G17    30.41F                  
$$
 
ANZALL-270800-
MARINE OBSERVATIONS
  
STATION/POSITION TIME  TEMP    WIND        PRES    VSBY  WAVE
                       AIR SEA DIR/SP/G                  HT/PER
                 (UTC) (F)     (DEG/KT/KT) (MB)    (MI)  (FT/S)
BOSTON BUOY      0640   35 39  180/ 17/ 21 1033.5R
BUZZARDS BAY     0600          160/ 13/ 14 1033.9F
NANTUCKET SOUND  0640      37  170/ 14/ 16   N/A
MASS BAY-STELLWA 0604   37     190/ 21/ 25 1031.7R  1 7/8  4/ 5
ISLE OF SHOALS   0600   36     180/ 27/ 29 1031.4F
S OF BLOCK IS    0626      40                N/A           2/ 3
$$

......................KEY.........................
  SKY/WX - SKY CONDITION/PRESENT WEATHER
  TMP    - TEMPERATURE IN FAHRENHEIT
  DWPT   - DEWPOINT IN FAHRENHEIT
  RH     - RELATIVE HUMIDITY IN PERCENT
  WIND   - DIRECTION AND SPEED IN MPH
  PRES   - MEAN SEA LEVEL PRESSURE IN INCHES OF HG
  WCI    - WIND CHILL INDEX
  VSB    - VISIBILITY IN MILES
  HX     - HEAT INDEX
  TC     - TEMPERATURE IN CELSIUS
  VRB    - VARIABLE WIND DIRECTION
  N/A    - NOT AVAILABLE
  
      

Other recent Regional Weather Roundups

Wed Mar 3, 2:04am

Wed Mar 3, 1:04am

Wed Mar 3, 12:04am

Tue Mar 2, 11:04pm

Tue Mar 2, 10:05pm

Tue Mar 2, 9:04pm

Tue Mar 2, 8:04pm

Tue Mar 2, 7:04pm

Tue Mar 2, 6:04pm

Tue Mar 2, 5:04pm

Tue Mar 2, 4:05pm

Tue Mar 2, 3:04pm

Tue Mar 2, 2:04pm

Tue Mar 2, 1:04pm

Tue Mar 2, 12:04pm

Tue Mar 2, 11:04am

Tue Mar 2, 10:05am

Tue Mar 2, 9:04am

Tue Mar 2, 8:04am

Tue Mar 2, 7:04am

Tue Mar 2, 6:05am

Tue Mar 2, 5:04am

Tue Mar 2, 4:04am

Tue Mar 2, 3:04am

Tue Mar 2, 2:04am

Tue Mar 2, 1:04am

Tue Mar 2, 12:04am

Mon Mar 1, 11:04pm

Mon Mar 1, 10:04pm

Mon Mar 1, 9:04pm

Mon Mar 1, 8:04pm

Mon Mar 1, 7:04pm

Mon Mar 1, 6:04pm

Mon Mar 1, 5:04pm

Mon Mar 1, 4:05pm

Mon Mar 1, 3:05pm

Mon Mar 1, 2:04pm

Mon Mar 1, 1:04pm

Mon Mar 1, 12:04pm

Mon Mar 1, 11:04am

Mon Mar 1, 10:04am

Mon Mar 1, 9:04am

Mon Mar 1, 8:05am

Mon Mar 1, 7:04am

Mon Mar 1, 6:04am

Mon Mar 1, 5:04am

Mon Mar 1, 4:05am

Mon Mar 1, 3:04am

Mon Mar 1, 2:04am

Mon Mar 1, 1:04am

Mon Mar 1, 12:05am

Sun Feb 28, 11:04pm

Sun Feb 28, 10:04pm

Sun Feb 28, 9:04pm

Sun Feb 28, 8:04pm

Sun Feb 28, 7:04pm

Sun Feb 28, 6:05pm

Sun Feb 28, 5:04pm

Sun Feb 28, 4:05pm

Sun Feb 28, 3:04pm

Sun Feb 28, 2:04pm

Sun Feb 28, 1:04pm

Sun Feb 28, 12:04pm

Sun Feb 28, 11:04am

Sun Feb 28, 10:04am

Sun Feb 28, 9:04am

Sun Feb 28, 8:04am

Sun Feb 28, 7:04am

Sun Feb 28, 6:04am

Sun Feb 28, 5:04am

Sun Feb 28, 4:04am

Sun Feb 28, 3:04am

Sun Feb 28, 2:04am

Sun Feb 28, 1:04am

Sun Feb 28, 12:04am

Sat Feb 27, 11:04pm

Sat Feb 27, 10:04pm

Sat Feb 27, 9:04pm

Sat Feb 27, 8:04pm

Sat Feb 27, 7:04pm

Sat Feb 27, 6:04pm

Sat Feb 27, 5:04pm

Sat Feb 27, 4:04pm

Sat Feb 27, 3:05pm

Sat Feb 27, 2:05pm

Sat Feb 27, 1:04pm

Sat Feb 27, 12:04pm

Sat Feb 27, 11:04am

Sat Feb 27, 10:04am

Sat Feb 27, 9:05am

Sat Feb 27, 8:04am

Sat Feb 27, 7:04am

Sat Feb 27, 6:04am

Sat Feb 27, 5:04am

Sat Feb 27, 4:04am

Sat Feb 27, 3:04am

Sat Feb 27, 1:04am

Sat Feb 27, 12:04am

Fri Feb 26, 11:04pm

Fri Feb 26, 10:04pm

Fri Feb 26, 9:04pm

Fri Feb 26, 8:04pm

Fri Feb 26, 7:04pm

Fri Feb 26, 6:04pm

Fri Feb 26, 5:04pm

Fri Feb 26, 4:04pm

Fri Feb 26, 3:04pm

Fri Feb 26, 2:04pm

Fri Feb 26, 1:04pm

Fri Feb 26, 12:04pm

Fri Feb 26, 11:04am

Fri Feb 26, 10:04am

Fri Feb 26, 9:04am

Fri Feb 26, 8:04am

Fri Feb 26, 7:04am

Fri Feb 26, 6:04am

Fri Feb 26, 5:04am

Fri Feb 26, 4:04am

Fri Feb 26, 3:04am

Fri Feb 26, 2:04am

Fri Feb 26, 1:04am

Fri Feb 26, 12:04am

Thu Feb 25, 11:04pm

Thu Feb 25, 10:04pm

Thu Feb 25, 9:04pm

Thu Feb 25, 8:05pm

Thu Feb 25, 7:05pm

Thu Feb 25, 6:04pm

Thu Feb 25, 5:04pm

Thu Feb 25, 4:05pm

Thu Feb 25, 3:05pm

Thu Feb 25, 2:04pm

Thu Feb 25, 1:04pm

Thu Feb 25, 12:05pm

Thu Feb 25, 11:04am

Thu Feb 25, 10:04am

Thu Feb 25, 9:04am

Thu Feb 25, 8:04am

Thu Feb 25, 7:04am

Thu Feb 25, 6:04am

Thu Feb 25, 5:04am

Thu Feb 25, 4:04am

Thu Feb 25, 3:04am

Thu Feb 25, 2:04am

Thu Feb 25, 1:04am

Thu Feb 25, 12:04am

Wed Feb 24, 11:04pm

Wed Feb 24, 10:05pm

Wed Feb 24, 9:04pm

Wed Feb 24, 8:04pm

Wed Feb 24, 7:04pm

Wed Feb 24, 6:04pm

Wed Feb 24, 5:04pm

Wed Feb 24, 4:04pm

Wed Feb 24, 3:04pm

Wed Feb 24, 2:05pm

Wed Feb 24, 1:05pm

Wed Feb 24, 12:05pm

Wed Feb 24, 11:04am

Wed Feb 24, 10:04am

Wed Feb 24, 9:04am

Wed Feb 24, 8:04am

Wed Feb 24, 7:04am

Wed Feb 24, 6:04am

Wed Feb 24, 5:04am

Wed Feb 24, 4:04am

Wed Feb 24, 3:04am

Meta data:

ID: 2d23063d-39ef-4a04-9a0b-f272584f4ab1
Link: https://api.weather.gov/products/2d23063d-39ef-4a04-9a0b-f272584f4ab1